GPS BIIF-11 (PRN 10)

Last updated on July 6, 2021, 3:39 p.m. UTC

1 41019U 15062A   21186.42145896 -.00000062  00000-0  00000-0 0  9995
2 41019  55.5590 101.5082 0068327 214.3763 145.1824  2.00563630 41572
UTC
Height (km)
Latitude
Longitude
Inclination
Orbital Period
UTC large
Height (km)
Speed (km/s)
/
Latitude / Longitude
Inclination (degrees)
Orbital Period (minutes)
Azimuth
Elevation
Range (km)
Doppler Factor
iOS Compass Heading
iOS Angle